SCP
0 0 0 0 0 0 0 0 0 0 0 0 0 0 1 1 1 1 1 1 1 1 1 1 1 1 1 1 1 1 1 1 1 1 1 1 1 1 1 1 0 0 0 0 0 0 0 0 0
0 0 0 0 0 0 0 0 0 0 0 0 0 0 1 1 1 1 1 1 1 1 1 1 2 2 2 2 1 1 1 1 1 1 1 1 1 1 1 1 0 0 0 0 0 0 0 0 0
0 0 0 0 0 0 0 1 1 1 0 0 0 0 1 1 1 1 1 1 1 1 1 1 2 2 2 2 2 1 1 1 1 1 1 1 1 1 1 1 0 0 0 0 0 0 0 0 0
0 0 0 0 0 0 0 1 1 1 0 0 1 1 1 1 1 1 1 1 2 1 1 2 2 2 2 2 2 2 1 1 1 1 1 1 1 1 1 1 0 0 0 0 0 0 0 0 0
0 0 0 0 0 0 1 1 0 0 0 1 1 1 1 1 1 1 1 2 2 2 1 2 2 3 2 2 2 2 1 1 1 1 1 1 1 1 1 1 1 0 0 0 0 0 0 0 0
0 0 0 0 0 0 0 0 0 1 1 1 1 1 1 1 1 1 2 2 2 2 2 2 2 2 2 2 2 2 1 1 1 1 1 1 1 1 1 1 1 1 0 0 0 0 0 0 1
1 0 0 0 0 0 0 0 1 1 1 1 1 1 1 1 1 2 2 2 2 2 2 2 2 2 2 2 2 1 1 1 1 1 1 1 1 1 1 1 1 1 1 1 1 1 1 1 1
0 0 0 0 0 0 0 0 1 1 1 1 1 1 1 2 2 2 2 2 3 3 2 2 2 2 2 2 2 1 1 1 1 1 1 1 1 1 1 1 1 1 1 1 1 1 1 1 1
0 0 0 0 0 0 0 1 1 1 1 1 1 1 2 3 3 3 3 3 3 2 2 2 2 2 2 2 2 2 1 1 1 1 1 1 1 1 1 1 1 1 1 1 1 1 1 1 1
0 0 0 0 0 0 1 1 1 1 1 2 2 2 3 4 4 3 3 3 3 3 3 2 2 2 2 2 2 2 2 2 1 1 1 1 1 1 1 1 1 1 1 1 1 1 1 1 2
0 0 0 1 1 1 1 1 2 2 2 2 3 4 5 5 4 4 3 3 3 3 3 3 3 2 2 2 2 2 2 2 2 1 1 1 1 1 1 1 1 1 1 1 2 2 2 2 2
0 0 0 1 1 1 2 2 2 3 3 4 5 6 7 6 4 3 3 3 3 3 3 3 3 3 3 3 2 2 2 2 2 2 2 2 2 2 2 2 2 2 2 2 2 2 1 2 2
0 0 0 1 2 2 3 3 3 4 4 6 7 8 7 6 4 4 4 4 4 3 3 3 3 3 3 3 3 2 2 2 2 2 2 2 2 2 2 2 2 2 2 2 2 2 1 1 2
0 0 0 1 1 2 3 4 4 4 5 7 9 9 7 6 5 5 5 5 5 4 3 3 3 3 3 3 2 2 2 2 2 2 2 2 2 2 2 2 2 2 2 3 3 2 2 2 2
0 0 0 0 1 1 3 4 4 4 5 7 8 9 7 6 5 5 5 5 5 4 3 3 3 2 2 2 2 2 2 2 2 2 2 2 2 2 2 2 2 2 2 3 3 2 2 2 2
0 0 0 0 1 1 2 3 3 4 6 7 7 7 6 5 4 4 4 5 4 4 3 2 2 2 2 2 2 2 2 2 2 2 2 2 2 2 2 2 2 2 1 2 2 2 3 3 2
0 0 0 0 1 1 1 2 3 4 5 6 5 5 4 4 3 3 3 4 3 3 2 2 2 2 2 1 1 1 1 1 1 2 2 2 2 1 1 1 1 1 1 1 1 2 2 3 2
0 0 0 0 1 1 1 1 2 3 4 4 4 3 3 3 2 2 2 2 2 2 1 1 1 1 1 1 1 0 1 1 1 1 1 1 1 1 1 1 1 1 1 1 1 1 2 2 2
0 0 0 1 1 1 1 1 2 3 3 4 3 2 2 2 2 1 1 1 1 1 1 1 1 1 0 0 0 0 0 0 0 1 1 1 1 1 1 1 1 0 0 0 0 0 1 1 1
0 0 0 0 1 1 1 1 1 2 3 3 3 1 1 1 1 1 1 1 0 0 0 0 0 0 0 0 0 0 0 0 0 0 0 0 1 1 1 0 0 0 0 0 0 0 0 0 1
0 0 0 0 1 1 1 0 1 1 2 2 2 1 1 1 1 0 0 0 0 0 0 0 0 0 0 0 0 0 0 0 0 0 0 0 0 0 0 0 0 0 0 0 0 0 0 0 0
0 0 0 0 0 0 0 0 0 1 1 1 1 1 1 0 0 0 0 0 0 0 0 0 0 0 0 0 0 0 0 0 0 0 0 0 0 0 0 0 0 0 0 0 0 0 0 0 0
0 0 0 0 0 0 0 0 0 0 0 1 1 1 0 0 0 0 0 0 0 0 0 0 0 0 0 0 0 0 0 0 0 0 0 0 0 0 0 0 0 0 0 0 0 0 0 0 0
0 0 0 0 0 0 0 0 0 0 0 0 0 0 0 0 0 0 0 0 0 0 0 0 0 0 0 0 0 0 0 0 0 0 0 0 0 0 0 0 0 0 0 0 0 0 0 0 0
0 0 0 0 0 0 0 0 0 0 0 0 0 0 0 0 0 0 0 0 0 0 0 0 0 0 0 0 0 0 0 0 0 0 0 0 0 0 0 0 0 0 0 0 0 0 0 0 0
0 0 0 0 0 0 0 0 0 0 0 0 0 0 0 0 0 0 0 0 0 0 0 0 0 0 0 0 0 0 0 0 0 0 0 0 0 0 0 0 0 0 0 0 0 0 0 0 0
0 0 0 0 0 0 0 0 0 0 0 0 0 0 0 0 0 0 0 0 0 0 0 0 0 0 0 0 0 0 0 0 0 0 0 0 0 0 0 0 0 0 0 0 0 0 0 0 0
0 0 0 0 0 0 0 0 0 0 0 0 0 0 0 0 0 0 0 0 0 0 0 0 0 0 0 0 0 0 0 0 0 0 0 0 0 0 0 0 0 0 0 0 0 0 0 0 0
0 0 0 0 0 0 0 0 0 0 0 0 0 0 0 0 0 0 0 0 0 0 0 0 0 0 0 0 0 0 0 0 0 0 0 0 0 0 0 0 0 0 0 0 0 0 0 0 0
0 0 0 0 0 0 0 0 0 0 0 0 0 0 0 0 0 0 0 0 0 0 0 0 0 0 0 0 0 0 0 0 0 0 0 0 0 0 0 0 0 0 0 0 0 0 0 0 0
Wind_Speed
7 4 1 1 2 2 4 5 4 4 4 3 1 1 3 2 2 2 3 11 15 15 12 15 18 18 18 18 17 17 17 17 17 16 16 16 16 15 14 14 13 12 11 10 9 9 9 9 10
4 2 1 2 2 2 5 4 4 5 4 2 1 1 3 2 3 6 6 9 15 14 11 12 18 18 18 17 17 16 16 16 16 16 15 15 15 14 13 13 12 11 11 10 9 9 9 9 10
4 1 2 2 0 3 6 5 6 7 5 1 1 2 3 1 4 6 6 14 14 11 9 13 20 18 17 17 16 15 15 15 15 14 14 14 13 13 12 12 11 10 10 10 9 9 9 9 9
2 2 3 2 4 5 6 9 9 8 5 1 3 3 3 5 2 6 13 16 15 11 9 12 19 17 17 16 15 14 14 14 14 13 13 13 12 12 11 11 10 10 9 9 9 9 9 9 9
2 3 3 2 5 6 6 9 6 5 4 2 3 3 3 6 7 13 15 16 15 11 8 10 18 17 16 15 14 14 13 13 13 12 12 12 11 11 11 10 10 9 9 9 8 8 8 8 9
3 3 2 3 6 7 6 6 6 4 2 1 3 3 3 4 7 11 12 12 12 11 8 9 17 17 16 15 14 13 13 12 12 12 11 11 11 10 10 10 9 9 9 9 8 8 8 8 8
3 3 1 3 5 6 5 6 6 6 4 2 3 4 2 4 5 8 10 11 10 9 7 6 8 11 14 14 13 13 12 12 11 11 11 10 10 10 10 9 9 9 9 9 9 9 9 9 8
4 3 2 3 4 6 5 6 5 5 3 2 3 5 4 6 9 9 10 9 9 7 6 6 6 6 6 8 12 12 12 11 11 11 10 10 10 10 10 9 9 10 10 10 10 10 10 9 9
3 3 3 4 4 6 5 6 6 4 2 3 4 2 6 14 13 11 10 9 8 8 5 5 5 4 4 4 7 9 10 10 9 8 10 9 4 4 5 8 10 11 11 11 11 11 11 10 10
4 3 8 7 6 6 7 5 6 4 4 3 5 7 14 14 12 11 11 11 10 10 7 5 5 5 4 4 3 2 2 2 3 2 3 2 2 2 5 6 10 11 12 11 11 12 11 9 5
6 7 7 7 8 5 5 4 3 2 4 3 3 10 13 12 9 8 8 8 8 7 7 6 5 4 4 2 1 1 1 1 2 3 3 2 2 2 3 2 4 5 8 5 7 8 6 5 5
5 8 7 7 5 3 3 1 3 5 2 3 7 10 11 10 7 6 6 6 6 6 5 4 5 4 3 1 1 1 1 2 2 3 4 3 2 3 3 3 3 3 2 3 3 4 5 6 7
6 7 6 6 5 2 2 2 5 6 6 9 11 10 9 7 5 4 4 4 4 4 4 4 4 4 4 2 1 1 1 1 2 2 3 4 3 3 3 2 2 3 3 3 4 4 6 7 7
5 4 4 4 2 2 6 4 5 5 6 11 12 10 8 6 4 5 5 5 4 4 4 5 5 4 4 3 1 1 1 1 2 2 2 2 2 2 2 2 3 3 3 3 3 5 5 5 5
2 3 5 4 3 1 5 7 5 2 7 11 11 10 9 7 6 5 4 4 4 5 5 5 5 5 4 4 2 2 1 1 1 1 1 0 1 1 1 2 2 2 3 3 3 4 4 5 5
3 3 3 4 4 3 6 3 1 2 6 9 8 8 8 7 7 6 6 5 4 5 5 5 5 6 4 3 2 1 1 1 0 0 0 1 0 0 0 1 1 2 2 2 2 3 3 4 5
4 2 2 4 4 2 4 4 1 1 5 6 6 6 7 6 6 6 5 4 4 5 5 6 6 5 5 4 3 2 2 1 0 0 1 0 0 0 0 1 2 2 1 2 3 2 3 4 5
4 2 2 3 3 4 5 4 2 2 3 4 4 5 5 5 4 4 4 3 4 4 5 5 5 5 5 4 3 2 2 1 0 0 0 0 0 0 0 1 1 1 1 2 2 3 3 4 4
3 1 1 1 1 4 5 4 2 2 2 2 2 2 4 3 3 3 3 3 3 3 4 4 4 3 3 2 2 2 1 0 0 1 1 1 1 1 1 1 1 1 1 2 3 2 3 3 2
3 1 1 1 3 4 4 2 1 0 1 2 2 2 3 2 2 2 2 2 2 3 3 3 4 4 3 2 2 2 2 1 1 1 1 2 2 2 2 2 2 2 2 3 2 2 2 2 2
2 3 3 4 3 5 2 2 1 1 1 1 1 2 3 5 5 4 3 2 2 3 3 3 3 3 2 2 2 2 2 2 1 1 2 2 2 2 2 3 3 3 2 3 3 2 2 3 3
2 2 3 5 4 3 3 1 3 2 2 2 2 2 3 3 3 4 4 4 4 4 3 2 2 1 1 1 1 2 2 1 2 2 2 3 3 3 3 3 3 3 3 3 4 3 2 3 3
3 4 6 5 5 3 4 1 5 1 2 4 4 4 5 4 4 5 5 5 4 3 2 2 1 0 0 0 1 1 1 2 2 2 3 4 4 4 4 4 3 3 3 4 4 3 3 2 3
6 6 6 6 5 3 2 1 4 3 4 4 3 4 5 4 4 4 4 3 2 2 2 2 2 1 1 1 1 1 3 3 3 4 3 3 3 4 5 4 4 4 3 4 4 4 4 3 3
4 6 5 5 4 2 1 1 7 5 5 5 5 5 5 4 4 4 4 3 3 3 2 2 2 2 2 1 2 2 3 3 4 4 4 4 3 3 5 4 4 4 4 5 4 4 4 4 4
3 6 6 3 3 3 2 3 7 4 4 4 5 4 3 4 4 4 4 4 3 3 2 2 2 2 1 1 2 2 2 2 3 4 4 4 4 5 5 5 5 6 5 5 4 4 5 4 5
5 3 5 7 2 2 4 5 7 2 2 2 3 3 4 4 4 4 3 2 2 2 2 2 2 2 2 2 2 3 3 3 4 5 4 4 5 5 5 5 5 6 5 5 4 4 5 4 5
4 7 5 5 4 1 4 4 5 4 4 3 4 5 5 3 3 2 1 2 1 1 1 0 1 1 2 2 2 2 3 4 4 4 5 5 5 5 5 6 6 6 6 5 5 5 5 5 5
3 4 6 5 4 5 2 7 7 7 6 5 5 4 4 4 3 2 1 1 1 0 0 0 1 1 2 3 3 3 4 4 4 4 6 5 5 6 6 6 6 6 7 6 5 6 6 6 6
2 4 7 5 3 4 4 9 5 5 6 5 4 3 3 3 3 2 2 1 0 1 1 2 2 2 3 3 3 4 4 4 5 6 6 6 6 6 6 7 7 7 7 6 6 7 7 7 7
Wind_Direction
143 136 119 60 42 16 276 259 246 275 277 274 291 110 114 126 173 196 116 137 135 144 152 154 151 147 144 141 140 139 138 137 138 139 141 143 146 148 150 151 153 153 152 148 144 139 134 131 129
133 143 58 55 55 338 285 259 269 278 258 283 344 72 76 63 75 111 129 141 140 144 147 151 152 149 146 144 143 143 142 142 143 145 146 148 150 152 153 154 156 157 156 154 151 147 143 140 138
146 165 79 65 103 234 276 284 287 296 290 267 26 41 72 86 129 145 149 141 137 140 142 156 154 152 149 148 147 147 147 147 149 150 152 153 155 157 158 159 160 160 160 159 158 155 151 149 147
124 54 55 54 264 246 250 281 297 308 324 356 115 55 54 21 140 141 138 140 138 137 140 158 155 154 153 152 152 152 152 153 154 156 157 160 162 164 164 165 167 167 167 167 166 164 161 160 159
68 78 47 322 270 262 257 280 293 300 308 358 88 76 33 11 88 124 137 142 142 139 143 158 157 158 157 157 157 158 159 161 163 164 165 168 171 173 174 175 177 177 178 179 179 178 175 174 173
63 63 60 287 278 279 285 309 333 324 311 29 80 79 39 67 105 128 136 138 140 142 142 153 160 161 162 162 163 165 167 170 172 174 176 178 181 183 184 187 190 190 191 191 192 192 191 191 188
108 105 223 264 284 295 307 339 353 339 350 25 97 91 70 110 114 124 126 128 131 134 133 142 154 162 166 168 170 173 175 178 182 184 186 189 191 193 195 198 201 201 205 207 206 206 206 206 205
134 106 285 273 273 281 304 346 336 340 329 34 85 130 177 152 127 116 117 123 128 130 132 133 138 147 157 168 177 180 183 188 192 193 196 200 203 205 208 208 213 214 215 217 219 220 219 218 218
119 79 252 246 248 269 309 339 327 327 13 30 36 101 138 130 127 122 125 131 142 147 138 127 127 130 136 154 182 184 190 196 200 204 208 207 211 218 223 223 223 228 230 227 227 230 231 229 229
123 178 233 226 226 256 300 317 320 342 12 36 57 80 116 128 134 138 146 153 161 166 160 143 140 138 134 168 169 164 180 193 202 203 220 203 187 220 235 246 240 240 242 240 235 236 236 233 229
176 211 243 256 251 254 281 308 346 15 8 0 121 128 130 133 138 146 151 158 164 164 167 163 156 141 141 152 157 160 155 181 209 210 215 207 200 217 238 250 258 258 256 251 246 243 235 227 218
205 246 246 270 277 269 256 268 46 48 30 49 108 126 130 136 146 155 153 154 148 154 164 162 158 152 151 162 200 174 174 210 223 221 214 207 211 215 220 231 242 249 253 252 250 246 243 235 229
227 259 266 266 288 280 81 85 102 64 69 80 91 97 114 128 129 118 111 114 134 154 155 152 155 163 162 164 208 182 198 257 268 256 236 224 224 231 231 239 248 253 253 248 249 250 250 245 236
245 258 284 298 312 35 90 61 76 62 78 85 85 83 84 85 95 102 106 123 145 146 139 138 148 157 151 146 143 160 169 213 246 248 250 243 235 233 235 240 244 249 252 256 251 248 247 247 241
296 315 329 355 10 86 91 52 44 61 91 87 88 89 84 80 74 78 86 105 124 127 126 133 135 131 133 136 143 140 136 144 235 283 309 294 245 238 231 243 254 255 255 260 258 259 253 252 246
3 23 341 333 9 16 92 110 26 26 96 96 97 96 87 73 72 74 76 82 97 112 116 120 129 123 122 116 116 94 83 111 183 215 27 26 47 109 121 274 278 279 277 272 268 263 263 256 253
12 351 305 325 8 38 91 133 116 53 95 99 98 101 98 87 71 75 80 94 105 110 114 110 112 118 116 112 108 104 105 108 151 152 157 167 34 76 171 258 282 297 299 286 279 267 254 260 259
266 280 307 328 357 54 86 110 104 55 80 96 99 100 99 99 88 91 103 108 105 104 110 110 110 113 115 109 100 90 82 61 28 355 304 339 356 28 185 242 271 284 295 294 286 279 269 261 264
220 236 278 308 58 68 87 103 85 42 61 77 88 111 117 111 115 103 111 116 114 114 117 122 127 134 132 121 125 128 141 214 330 318 325 331 323 327 283 271 275 276 270 277 287 284 286 278 266
194 195 211 86 65 83 97 91 92 38 237 208 184 184 150 139 126 134 147 146 147 147 145 146 155 160 157 149 150 152 149 179 216 304 327 320 320 310 294 276 274 269 270 282 279 268 281 279 263
194 183 193 154 91 58 73 19 336 318 329 282 222 206 181 174 179 186 186 192 184 185 188 178 180 170 161 140 106 80 58 29 358 321 305 303 309 307 290 278 268 260 244 258 263 249 251 274 273
244 219 140 118 98 33 38 317 304 311 328 290 258 236 229 209 189 195 199 210 216 217 208 199 189 168 135 123 130 149 166 215 242 256 281 299 303 303 299 286 272 263 249 250 257 247 242 252 276
140 76 89 95 100 67 29 54 295 335 278 259 242 229 226 218 206 209 212 216 223 220 213 208 185 231 252 147 167 181 233 242 267 276 287 295 302 301 299 292 283 274 261 255 255 253 243 238 250
119 76 61 55 68 43 341 58 288 249 226 238 230 228 227 218 213 221 225 219 225 211 199 191 193 247 257 233 219 221 249 265 280 284 289 293 297 299 296 291 281 272 263 257 255 250 245 239 248
82 83 36 7 16 276 277 238 255 250 226 219 226 232 231 220 212 217 218 219 220 215 208 190 188 245 268 263 264 256 256 259 261 271 276 284 288 287 288 293 283 277 267 262 254 247 246 236 238
154 132 150 197 230 287 333 264 258 251 245 232 227 228 224 213 206 208 214 214 212 205 194 184 191 232 268 272 279 278 264 255 259 262 261 265 264 269 277 281 277 274 273 272 259 249 249 241 238
130 120 142 121 105 4 310 300 305 260 239 215 216 212 220 216 206 204 202 189 179 173 181 191 197 235 272 282 290 292 286 273 272 277 271 267 266 272 275 277 279 280 277 271 263 252 251 247 243
114 136 100 104 127 288 309 293 258 262 238 217 211 214 219 201 193 188 173 162 163 170 184 149 184 248 278 290 286 289 290 286 282 284 281 277 277 278 285 284 281 281 278 272 262 258 255 250 249
114 92 97 101 140 147 240 270 228 222 221 217 222 212 200 192 185 173 153 149 146 66 6 309 301 289 294 296 296 299 295 295 295 286 281 281 282 284 283 282 282 281 277 272 262 259 257 250 253
149 153 147 143 187 163 175 265 268 236 227 210 210 197 178 169 156 154 160 161 259 301 304 301 297 291 285 287 291 291 292 296 294 288 285 284 282 282 280 282 282 280 278 271 263 263 261 251 250